Location: Kalispell
(48.1967°N, 114.3128°W)
Time: 04:59:39
(UTC-06:00)

Amateur Radio Satellites - All Passes

Search period start: 30 August 2016 04:29
Search period end: 31 August 2016 04:29
Location: Kalispell, 48.1967°N, 114.3128°W

Satellite Date Start Highest point End Downlink Frequencies (MHz)
Time Altitude Azimuth
SWISSCUBE 30 Aug 04:32:59 04:35:46 15° 271° (W) 04:38:33 437.505
MOZHAYETS 4 30 Aug 04:36:38 04:41:11 79° 256° (WSW) 04:45:46
Cosmos 2491 30 Aug 04:37:08 04:44:46 31° 63° (ENE) 04:52:22 435.465 / 435.565
ITAMSAT 1 30 Aug 04:40:01 04:45:12 67° 103° (ESE) 04:50:21 435.822/435.867
STARS 30 Aug 04:40:03 04:44:20 49° 70° (ENE) 04:48:37 437.465
AO-7 30 Aug 04:41:52 04:49:29 38° 97° (E) 04:57:01 29.400- 29.500
BEESAT 30 Aug 04:51:04 04:52:46 12° 273° (W) 04:54:28 436.000
Gurwin Techsat 1B 30 Aug 04:52:16 04:57:05 36° 295° (WNW) 05:01:54 435.225
RS-15 30 Aug 04:56:00 05:07:18 46° 333° (NNW) 05:19:05 29.354- 29.394
Oscar 19 30 Aug 05:00:38 05:03:56 17° 304° (NW) 05:07:15 437.125/150
SO-50 30 Aug 05:35:02 05:37:08 13° 14° (NNE) 05:39:11 436.795
KKS-1 30 Aug 05:49:22 05:52:42 20° 268° (W) 05:56:03 437.445
YUBILEINY 30 Aug 05:55:43 06:03:00 30° 81° (E) 06:10:16 435.215
PHONESAT 2.4 30 Aug 05:59:31 06:00:13 11° 200° (SSW) 06:00:55 2401.200-2431.200
CUBESAT XI-V 30 Aug 06:04:00 06:08:37 76° 258° (WSW) 06:13:17 437.345
AO-85 30 Aug 06:05:09 06:10:22 67° 124° (SE) 06:15:17 145.980
STARS 30 Aug 06:17:40 06:20:57 20° 268° (W) 06:24:15 437.465
ITAMSAT 1 30 Aug 06:20:23 06:24:12 21° 302° (WNW) 06:28:00 435.822/435.867
Cosmos 2504 30 Aug 06:23:52 06:27:55 15° 74° (ENE) 06:31:51 435.465 / 435.565
Cosmos 2491 30 Aug 06:33:39 06:42:27 72° 265° (W) 06:51:13 435.465 / 435.565
AO-7 30 Aug 06:34:30 06:42:37 59° 298° (WNW) 06:50:41 29.400- 29.500
BRITE-PL 30 Aug 06:47:51 06:53:11 39° 95° (E) 06:58:22 437.365/2234.400
STRAND 1 30 Aug 06:54:13 06:58:29 28° 62° (ENE) 07:02:45 437.568
HORYU 2 30 Aug 06:57:22 07:01:49 86° 107° (ESE) 07:06:14 437.375
NOAA 18 30 Aug 07:04:40 07:08:41 20° 91° (E) 07:12:40 137.9125
RS-15 30 Aug 07:12:37 07:23:38 37° 7° (N) 07:34:49 29.354- 29.394
SO-50 30 Aug 07:14:52 07:19:04 31° 38° (NE) 07:23:09 436.795
LilacSat-2 30 Aug 07:26:21 07:29:46 31° 96° (E) 07:33:08 437.200
Cubesat XI-IV 30 Aug 07:29:22 07:34:17 36° 97° (E) 07:39:09 437.490
NOAA 15 30 Aug 07:32:10 07:37:20 48° 100° (E) 07:42:27 137.62
CUTE-I 30 Aug 07:40:12 07:45:18 45° 99° (E) 07:50:23 437.470
DOVE 4 30 Aug 07:40:42 07:44:47 24° 91° (E) 07:48:41 437.250
AO-85 30 Aug 07:46:48 07:51:13 28° 323° (NW) 07:55:24 145.980
GOMX 1 30 Aug 07:47:40 07:53:04 59° 100° (E) 07:58:08 467.674
YUBILEINY 30 Aug 07:50:15 07:59:04 71° 282° (WNW) 08:07:56 435.215
CINEMA 3 30 Aug 08:03:34 08:03:52 10° 84° (E) 08:04:12 145.822/145.860
Cosmos 2504 30 Aug 08:11:43 08:19:58 70° 95° (E) 08:27:38 435.465 / 435.565
BRITE-PL 30 Aug 08:26:21 08:31:37 39° 294° (WNW) 08:36:46 437.365/2234.400
AO-7 30 Aug 08:28:36 08:33:47 18° 321° (NW) 08:38:57 29.400- 29.500
STRAND 1 30 Aug 08:32:33 08:37:27 47° 261° (W) 08:42:23 437.568
Cosmos 2491 30 Aug 08:32:41 08:37:39 17° 288° (WNW) 08:42:37 435.465 / 435.565
HORYU 2 30 Aug 08:35:34 08:37:44 14° 303° (WNW) 08:39:54 437.375
NOAA 18 30 Aug 08:44:24 08:49:50 66° 290° (WNW) 08:55:15 137.9125
SO-50 30 Aug 08:55:17 08:59:44 48° 239° (WSW) 09:04:04 436.795
CUSAT 1 30 Aug 08:59:20 09:03:27 17° 60° (ENE) 09:08:02 437.405
LilacSat-2 30 Aug 09:00:55 09:03:57 23° 294° (WNW) 09:06:57 437.200
SEEDS 30 Aug 09:05:22 09:08:47 23° 93° (E) 09:12:12 437.485
Cubesat XI-IV 30 Aug 09:09:30 09:14:21 36° 295° (WNW) 09:19:10 437.490
NOAA 15 30 Aug 09:12:22 09:16:53 29° 298° (WNW) 09:21:23 137.62
PRISM 30 Aug 09:17:09 09:21:14 70° 74° (ENE) 09:25:22 437.425
DOVE 4 30 Aug 09:17:52 09:22:45 48° 291° (WNW) 09:27:20 437.250
CUTE-I 30 Aug 09:20:36 09:25:11 30° 298° (WNW) 09:29:45 437.470
HO-68 30 Aug 09:25:40 09:32:41 54° 101° (E) 09:39:39 435.675
UNISAT 6 30 Aug 09:25:59 09:28:04 13° 58° (ENE) 09:30:09 437.425
GOMX 1 30 Aug 09:26:24 09:30:42 24° 299° (WNW) 09:34:51 467.674
ISS 30 Aug 09:26:36 09:29:46 47° 149° (SSE) 09:32:57 145.825
RS-15 30 Aug 09:27:04 09:39:17 60° 39° (NE) 09:51:25 29.354- 29.394
AAUSAT CUBESAT 2 30 Aug 09:28:05 09:31:25 23° 93° (E) 09:34:45 437.432
UWE-3 30 Aug 09:28:08 09:30:27 14° 89° (E) 09:32:45 435.000/436.395/437.385
AO-85 30 Aug 09:31:26 09:33:13 12° 346° (NNW) 09:34:58 145.980
CANX-2 30 Aug 09:32:23 09:36:39 70° 102° (ESE) 09:40:53 2200.000
CUBEBUG 2 30 Aug 09:35:51 09:39:22 25° 93° (E) 09:42:50 437.445
ZACube-1 30 Aug 09:36:50 09:38:10 11° 87° (E) 09:39:30 437.345
CINEMA 3 30 Aug 09:37:16 09:41:50 87° 107° (ESE) 09:46:09 145.822/145.860
CUTE 1.7 + AOD 2 30 Aug 09:37:54 09:42:09 70° 102° (ESE) 09:46:23 437.475
BEESAT 2 30 Aug 09:37:58 09:40:08 14° 111° (ESE) 09:42:19 435.950
COMPASS 1 30 Aug 09:38:45 09:42:37 36° 97° (E) 09:46:29 437.405
BEESAT 3 30 Aug 09:48:28 09:51:58 32° 119° (ESE) 09:55:31 437.485
YUBILEINY 30 Aug 09:51:58 09:57:47 19° 308° (NW) 10:03:37 435.215
AIST 1 30 Aug 09:59:01 10:03:21 71° 97° (E) 10:07:45
ANTELSAT 30 Aug 10:00:51 10:04:35 26° 65° (ENE) 10:08:17 437.575/2403.000
Cosmos 2504 30 Aug 10:07:04 10:13:59 29° 295° (WNW) 10:20:33 435.465 / 435.565
DANDE 30 Aug 10:23:14 10:27:42 25° 69° (ENE) 10:33:09 436.750
NOAA 18 30 Aug 10:27:04 10:29:31 13° 310° (NW) 10:31:57 137.9125
TIGRISAT 30 Aug 10:30:12 10:34:31 45° 70° (ENE) 10:38:47 435.000
Oscar 11 30 Aug 10:36:03 10:40:14 47° 99° (E) 10:44:24 145.826/435.025
CUSAT 1 30 Aug 10:39:50 10:46:18 73° 77° (ENE) 10:54:02 437.405
SEEDS 30 Aug 10:40:42 10:44:36 37° 291° (WNW) 10:48:30 437.485
DELFI C3 30 Aug 10:41:48 10:45:04 23° 94° (E) 10:48:19 145.870
FUNcube-1 30 Aug 10:47:39 10:51:46 57° 100° (E) 10:55:49 145.935
PRISM 30 Aug 10:55:13 10:57:02 13° 271° (W) 10:58:52 437.425
QB50P1 30 Aug 10:57:52 11:00:32 16° 60° (ENE) 11:03:11 145.935-145.965
UNISAT 6 30 Aug 10:59:34 11:04:09 90° 70° (ENE) 11:08:39 437.425
ISS 30 Aug 11:03:01 11:06:14 52° 348° (NNW) 11:09:29 145.825
AAUSAT CUBESAT 2 30 Aug 11:03:10 11:07:03 38° 291° (WNW) 11:10:55 437.432
UWE-3 30 Aug 11:03:13 11:07:22 60° 287° (WNW) 11:11:26 435.000/436.395/437.385
POPSAT HIP 1 30 Aug 11:07:41 11:10:46 20° 62° (ENE) 11:13:51 437.405
CANX-2 30 Aug 11:09:36 11:11:59 15° 300° (WNW) 11:14:23 2200.000
ZACube-1 30 Aug 11:10:52 11:15:02 77° 285° (WNW) 11:19:10 437.345
JAS-2 30 Aug 11:11:34 11:14:59 17° 52° (NE) 11:18:35 435.910
CUBEBUG 2 30 Aug 11:12:15 11:16:06 34° 292° (WNW) 11:19:52 437.445
Cosmos 2499 30 Aug 11:12:30 11:16:18 14° 75° (ENE) 11:19:59 435.465 / 435.565
BEESAT 2 30 Aug 11:13:30 11:17:26 71° 309° (NW) 11:21:27 435.950
HO-68 30 Aug 11:13:44 11:20:12 38° 301° (WNW) 11:26:37 435.675
AO-85 30 Aug 11:14:21 11:15:47 11° 11° (NNE) 11:17:11 145.980
COMPASS 1 30 Aug 11:14:36 11:18:02 25° 295° (WNW) 11:21:29 437.405
CUTE 1.7 + AOD 2 30 Aug 11:15:05 11:17:29 15° 300° (WNW) 11:19:53 437.475
CINEMA 3 30 Aug 11:16:08 11:18:14 13° 304° (WNW) 11:20:19 145.822/145.860
BEESAT 3 30 Aug 11:26:02 11:29:37 33° 318° (NW) 11:33:15 437.485
HUMSAT D 30 Aug 11:30:46 11:34:36 38° 97° (E) 11:38:26 437.325/437.525
DUCHIFAT 1 30 Aug 11:31:01 11:34:41 29° 66° (ENE) 11:38:20 145.980
ANTELSAT 30 Aug 11:36:50 11:41:08 40° 262° (W) 11:45:22 437.575/2403.000
QB50P2 30 Aug 11:37:46 11:41:45 39° 69° (ENE) 11:45:44 145.880/145.840
AIST 1 30 Aug 11:39:07 11:41:30 14° 296° (WNW) 11:43:54
RS-15 30 Aug 11:40:04 11:51:59 58° 245° (WSW) 12:03:43 29.354- 29.394
POLYITAN 1 30 Aug 11:40:16 11:44:15 39° 69° (ENE) 11:48:15 437.675
PCSat 30 Aug 11:44:46 11:49:28 31° 111° (ESE) 11:54:11 145.827
NANOSAT C BR1 30 Aug 11:45:56 11:49:57 42° 69° (ENE) 11:53:59 145.865
CUBEBUG 1 30 Aug 12:03:10 12:04:06 11° 86° (E) 12:05:02 437.445
DANDE 30 Aug 12:05:15 12:10:39 64° 262° (W) 12:17:41 436.750
GONETS M04 30 Aug 12:06:33 12:14:42 46° 87° (E) 12:22:55
TIGRISAT 30 Aug 12:07:49 12:11:24 22° 267° (W) 12:14:57 435.000
Oscar 11 30 Aug 12:12:51 12:16:05 21° 297° (WNW) 12:19:20 145.826/435.025
BUGSAT 1 30 Aug 12:13:15 12:17:06 35° 68° (ENE) 12:20:59 437.445
AIST 2 30 Aug 12:13:41 12:17:04 25° 116° (ESE) 12:20:30 435.215
DELFI C3 30 Aug 12:16:20 12:19:59 34° 291° (WNW) 12:23:38 145.870
CUSAT 1 30 Aug 12:22:39 12:27:58 26° 272° (W) 12:34:00 437.405
FUNcube-1 30 Aug 12:24:58 12:27:36 17° 299° (WNW) 12:30:14 145.935
QB50P1 30 Aug 12:31:36 12:35:51 64° 258° (WSW) 12:40:06 145.935-145.965
ISS 30 Aug 12:39:51 12:43:03 47° 8° (N) 12:46:16 145.825
UNISAT 6 30 Aug 12:40:08 12:41:29 11° 273° (W) 12:42:50 437.425
POPSAT HIP 1 30 Aug 12:42:03 12:46:13 51° 260° (W) 12:50:24 437.405
AUBIESAT-1 30 Aug 12:44:23 12:48:02 32° 101° (E) 12:51:24 437.475
UKube-1 30 Aug 12:49:26 12:51:37 14° 89° (E) 12:53:47 .
M-CUBED/EXP-1 PRIME 30 Aug 12:52:37 12:56:38 49° 104° (ESE) 13:00:19 437.505
BEESAT 2 30 Aug 12:53:33 12:56:00 15° 331° (NNW) 12:58:27 435.950
JAS-2 30 Aug 12:53:56 12:59:12 88° 255° (WSW) 13:05:01 435.910
AO-85 30 Aug 12:53:58 12:57:48 27° 36° (NE) 13:01:22 145.980
AISAT 30 Aug 12:56:01 13:00:00 30° 96° (E) 13:03:55 437.250
Gurwin Techsat 1B 30 Aug 13:00:04 13:02:59 15° 54° (NE) 13:05:55 435.225
Cosmos 2499 30 Aug 13:00:12 13:08:09 72° 95° (E) 13:15:32 435.465 / 435.565
ESTCUBE 1 30 Aug 13:00:17 13:04:47 58° 101° (E) 13:09:16 437.505/2401.250
Oscar 19 30 Aug 13:02:19 13:06:40 28° 62° (ENE) 13:11:02 437.125/150
HO-68 30 Aug 13:05:27 13:05:57 10° 324° (NW) 13:06:28 435.675
DUCHIFAT 1 30 Aug 13:06:29 13:10:18 32° 264° (W) 13:14:09 145.980
HUMSAT D 30 Aug 13:06:49 13:10:03 23° 295° (WNW) 13:13:16 437.325/437.525
BEESAT 3 30 Aug 13:07:55 13:08:28 10° 340° (NNW) 13:09:01 437.485
QB50P2 30 Aug 13:14:15 13:17:41 23° 267° (W) 13:21:09 145.880/145.840
POLYITAN 1 30 Aug 13:16:46 13:20:12 23° 267° (W) 13:23:38 437.675
NANOSAT C BR1 30 Aug 13:22:34 13:25:51 22° 267° (W) 13:29:10 145.865
PCSat 30 Aug 13:27:22 13:32:39 51° 311° (NW) 13:37:58 145.827
CUBEBUG 1 30 Aug 13:36:36 13:41:04 89° 103° (ESE) 13:45:29 437.445
SPROUT 30 Aug 13:39:37 13:43:43 42° 98° (E) 13:47:46 437.525
VELOX 1 30 Aug 13:42:44 13:47:14 83° 102° (ESE) 13:51:41 145.980
50 SAT 30 Aug 13:47:35 13:51:15 76° 284° (WNW) 13:54:53 437.505
TISAT 1 30 Aug 13:48:53 13:50:45 13° 88° (E) 13:52:36 437.305
BUGSAT 1 30 Aug 13:48:57 13:52:33 26° 266° (W) 13:56:08 437.445
DX 1 30 Aug 13:49:21 13:53:45 66° 102° (ESE) 13:58:06 434.975-435.025
DANDE 30 Aug 13:51:17 13:52:52 11° 276° (W) 13:54:31 436.750
AIST 2 30 Aug 13:51:25 13:55:22 44° 315° (NW) 13:59:22 435.215
AO-7 30 Aug 13:55:31 14:01:17 21° 43° (NE) 14:07:04 29.400- 29.500
RS-15 30 Aug 13:56:06 14:01:31 14° 269° (W) 14:06:56 29.354- 29.394
GONETS M04 30 Aug 14:03:07 14:11:30 48° 289° (WNW) 14:20:01
ISS 30 Aug 14:16:22 14:19:38 64° 208° (SSW) 14:22:53 145.825
AUBIESAT-1 30 Aug 14:18:58 14:22:24 26° 302° (WNW) 14:25:37 437.475
ITAMSAT 1 30 Aug 14:23:44 14:27:48 24° 60° (ENE) 14:31:52 435.822/435.867
UKube-1 30 Aug 14:23:49 14:28:10 71° 287° (WNW) 14:32:28 .
O/OREOS (USA 219) 30 Aug 14:27:29 14:31:55 64° 112° (ESE) 14:36:26 437.305
M-CUBED/EXP-1 PRIME 30 Aug 14:27:47 14:30:48 20° 305° (NW) 14:33:40 437.505
AISAT 30 Aug 14:32:28 14:36:28 33° 294° (WNW) 14:40:26 437.250
AO-85 30 Aug 14:34:18 14:38:31 51° 239° (WSW) 14:42:25 145.980
Gurwin Techsat 1B 30 Aug 14:36:49 14:42:08 81° 73° (ENE) 14:47:29 435.225
ESTCUBE 1 30 Aug 14:37:58 14:41:12 19° 299° (WNW) 14:44:26 437.505/2401.250
Oscar 19 30 Aug 14:40:47 14:45:46 48° 261° (W) 14:50:48 437.125/150
JAS-2 30 Aug 14:42:58 14:45:24 13° 277° (W) 14:47:56 435.910
SWISSCUBE 30 Aug 14:50:43 14:53:11 14° 88° (E) 14:55:39 437.505
Cosmos 2499 30 Aug 14:55:27 15:01:55 27° 296° (WNW) 15:08:05 435.465 / 435.565
BEESAT 30 Aug 15:06:52 15:10:07 18° 91° (E) 15:13:21 436.000
PCSat 30 Aug 15:14:02 15:17:21 16° 334° (NNW) 15:20:41 145.827
CUBEBUG 1 30 Aug 15:14:38 15:16:41 13° 303° (WNW) 15:18:44 437.445
SPROUT 30 Aug 15:16:05 15:19:26 23° 297° (WNW) 15:22:46 437.525
VELOX 1 30 Aug 15:20:44 15:23:05 14° 303° (WNW) 15:25:26 145.980
TISAT 1 30 Aug 15:22:42 15:26:54 72° 287° (WNW) 15:31:04 437.305
DX 1 30 Aug 15:26:41 15:29:28 17° 301° (WNW) 15:32:14 434.975-435.025
AIST 2 30 Aug 15:33:02 15:34:54 13° 337° (NNW) 15:36:46 435.215
AO-7 30 Aug 15:44:25 15:52:42 69° 65° (ENE) 16:00:59 29.400- 29.500
ISS 30 Aug 15:54:07 15:55:34 12° 225° (SW) 15:57:01 145.825
ITUPSAT 1 30 Aug 15:55:33 16:00:12 48° 100° (E) 16:04:49 437.325
YUBILEINY 30 Aug 16:00:14 16:06:07 19° 53° (NE) 16:11:58 435.215
ITAMSAT 1 30 Aug 16:01:49 16:06:54 57° 259° (WSW) 16:12:02 435.822/435.867
UKube-1 30 Aug 16:02:56 16:03:24 10° 306° (NW) 16:03:52 .
GONETS M04 30 Aug 16:07:48 16:11:09 12° 316° (NW) 16:14:33
O/OREOS (USA 219) 30 Aug 16:08:25 16:11:47 20° 312° (NW) 16:15:11 437.305
BEESAT 2 30 Aug 16:14:45 16:15:19 10° 19° (NNE) 16:15:53 435.950
Gurwin Techsat 1B 30 Aug 16:19:34 16:22:44 16° 272° (W) 16:25:55 435.225
HORYU 2 30 Aug 16:24:07 16:26:59 17° 59° (ENE) 16:29:50 437.375
BEESAT 3 30 Aug 16:25:09 16:27:28 15° 29° (NNE) 16:29:47 437.485
SWISSCUBE 30 Aug 16:26:47 16:31:34 79° 286° (WNW) 16:36:20 437.505
BRITE-PL 30 Aug 16:28:11 16:29:28 11° 50° (NE) 16:30:44 437.365/2234.400
MOZHAYETS 4 30 Aug 16:28:42 16:31:58 19° 91° (E) 16:35:14
BEESAT 30 Aug 16:43:37 16:48:19 62° 289° (WNW) 16:53:01 436.000
NOAA 18 30 Aug 16:58:24 16:59:54 11° 48° (NE) 17:01:23 137.9125
PCSat 30 Aug 17:02:47 17:03:14 10° 1° (N) 17:03:40 145.827
Cubesat XI-IV 30 Aug 17:17:54 17:20:56 16° 54° (NE) 17:23:58 437.490
NOAA 15 30 Aug 17:18:21 17:21:58 19° 57° (ENE) 17:25:35 137.62
GOMX 1 30 Aug 17:23:16 17:26:26 16° 55° (NE) 17:29:41 467.674
CUTE-I 30 Aug 17:28:00 17:31:34 19° 56° (ENE) 17:35:08 437.470
ITUPSAT 1 30 Aug 17:33:56 17:37:46 24° 298° (WNW) 17:41:36 437.325
KKS-1 30 Aug 17:35:05 17:39:32 60° 101° (ESE) 17:43:55 437.445
AO-7 30 Aug 17:38:52 17:46:05 32° 266° (W) 17:53:21 29.400- 29.500
Cosmos 2491 30 Aug 17:44:16 17:51:22 29° 80° (E) 17:58:31 435.465 / 435.565
BEESAT 2 30 Aug 17:50:41 17:54:21 32° 42° (NE) 17:57:59 435.950
YUBILEINY 30 Aug 17:55:57 18:04:47 73° 78° (ENE) 18:13:28 435.215
CUBESAT XI-V 30 Aug 17:57:26 18:01:02 21° 91° (E) 18:04:38 437.345
HORYU 2 30 Aug 17:58:38 18:03:04 67° 258° (WSW) 18:07:31 437.375
Cosmos 2504 30 Aug 18:00:19 18:06:33 29° 65° (ENE) 18:12:40 435.465 / 435.565
BRITE-PL 30 Aug 18:01:45 18:06:41 56° 70° (ENE) 18:12:02 437.365/2234.400
STARS 30 Aug 18:01:52 18:06:14 56° 101° (E) 18:10:32 437.465
BEESAT 3 30 Aug 18:01:55 18:05:53 66° 50° (NE) 18:09:50 437.485
MOZHAYETS 4 30 Aug 18:05:00 18:09:28 54° 289° (WNW) 18:13:56
SWISSCUBE 30 Aug 18:06:31 18:08:36 13° 305° (NW) 18:10:41 437.505
LilacSat-2 30 Aug 18:11:48 18:15:04 27° 68° (ENE) 18:18:21 437.200
HO-68 30 Aug 18:14:32 18:18:22 15° 44° (NE) 18:22:14 435.675
BEESAT 30 Aug 18:24:41 18:25:10 10° 308° (NW) 18:25:41 436.000
NOAA 18 30 Aug 18:34:02 18:39:25 55° 68° (ENE) 18:44:48 137.9125
PCSat 30 Aug 18:45:29 18:49:02 17° 27° (NNE) 18:52:34 145.827
DOVE 4 30 Aug 18:48:35 18:53:25 38° 67° (ENE) 18:58:17 437.250
AIST 2 30 Aug 18:53:19 18:55:38 14° 26° (NNE) 18:57:58 435.215
Cubesat XI-IV 30 Aug 18:54:53 19:00:13 83° 73° (ENE) 19:05:36 437.490
NOAA 15 30 Aug 18:55:53 19:01:09 78° 256° (WSW) 19:06:28 137.62
CANX-2 30 Aug 18:56:57 18:57:25 10° 56° (NE) 18:57:53 2200.000
GOMX 1 30 Aug 18:58:26 19:03:40 85° 75° (ENE) 19:09:10 467.674
CUTE 1.7 + AOD 2 30 Aug 19:02:26 19:02:50 10° 56° (NE) 19:03:14 437.475
CUTE-I 30 Aug 19:05:40 19:11:00 81° 256° (WSW) 19:16:22 437.470
CINEMA 3 30 Aug 19:06:24 19:09:47 19° 60° (ENE) 19:13:08 145.822/145.860
KKS-1 30 Aug 19:12:36 19:15:41 19° 300° (WNW) 19:18:44 437.445
BEESAT 2 30 Aug 19:28:31 19:32:12 35° 241° (WSW) 19:35:50 435.950
CUBESAT XI-V 30 Aug 19:34:07 19:38:42 51° 290° (WNW) 19:43:15 437.345
Cosmos 2491 30 Aug 19:38:44 19:47:27 72° 282° (WNW) 19:56:16 435.465 / 435.565
STARS 30 Aug 19:39:07 19:42:11 19° 300° (WNW) 19:45:15 437.465
BEESAT 3 30 Aug 19:40:43 19:43:06 15° 248° (WSW) 19:45:27 437.485
BRITE-PL 30 Aug 19:41:36 19:45:35 23° 271° (W) 19:49:48 437.365/2234.400
LilacSat-2 30 Aug 19:46:03 19:49:21 27° 265° (W) 19:52:38 437.200
Cosmos 2504 30 Aug 19:53:21 20:00:27 61° 267° (W) 20:07:28 435.465 / 435.565
YUBILEINY 30 Aug 19:53:41 20:00:47 29° 280° (W) 20:07:51 435.215
HO-68 30 Aug 19:57:41 20:04:41 58° 65° (ENE) 20:11:42 435.675
SEEDS 30 Aug 20:00:34 20:04:01 26° 66° (ENE) 20:07:30 437.485
AIST 1 30 Aug 20:02:35 20:06:19 26° 70° (ENE) 20:10:01
NOAA 18 30 Aug 20:15:52 20:20:24 26° 267° (W) 20:24:57 137.9125
AAUSAT CUBESAT 2 30 Aug 20:21:49 20:25:10 24° 65° (ENE) 20:28:31 437.432
DOVE 4 30 Aug 20:26:17 20:31:05 36° 265° (W) 20:35:58 437.250
UWE-3 30 Aug 20:28:05 20:31:27 21° 63° (ENE) 20:34:45 435.000/436.395/437.385
PCSat 30 Aug 20:28:15 20:33:37 57° 50° (NE) 20:38:57 145.827
CANX-2 30 Aug 20:28:20 20:32:32 77° 75° (ENE) 20:36:45 2200.000
AIST 2 30 Aug 20:30:53 20:35:01 55° 48° (NE) 20:39:08 435.215
COMPASS 1 30 Aug 20:32:48 20:36:37 38° 69° (ENE) 20:40:28 437.405
CUTE 1.7 + AOD 2 30 Aug 20:33:44 20:37:56 77° 74° (ENE) 20:42:08 437.475
ZACube-1 30 Aug 20:35:27 20:38:13 17° 61° (ENE) 20:40:57 437.345
CUBEBUG 2 30 Aug 20:36:49 20:41:02 35° 68° (ENE) 20:45:07 437.445
Cubesat XI-IV 30 Aug 20:37:53 20:40:59 15° 272° (W) 20:44:06 437.490
STRAND 1 30 Aug 20:39:02 20:43:57 45° 98° (E) 20:48:50 437.568
GOMX 1 30 Aug 20:39:23 20:42:29 16° 275° (W) 20:45:40 467.674
NOAA 15 30 Aug 20:40:06 20:41:49 11° 275° (W) 20:43:33 137.62
CINEMA 3 30 Aug 20:41:25 20:46:25 72° 258° (WSW) 20:51:20 145.822/145.860
CUTE-I 30 Aug 20:49:49 20:51:55 12° 274° (W) 20:54:00 437.470
DELFI C3 30 Aug 21:31:16 21:34:23 23° 65° (ENE) 21:37:31 145.870
Oscar 11 30 Aug 21:34:00 21:38:12 56° 72° (ENE) 21:42:26 145.826/435.025
SEEDS 30 Aug 21:35:50 21:39:36 34° 264° (W) 21:43:26 437.485
AIST 1 30 Aug 21:39:59 21:43:59 34° 269° (W) 21:47:57
Cosmos 2491 30 Aug 21:40:22 21:46:09 19° 307° (NW) 21:52:01 435.465 / 435.565
FUNcube-1 30 Aug 21:46:09 21:50:31 70° 73° (ENE) 21:54:48 145.935
HO-68 30 Aug 21:46:22 21:52:44 34° 265° (W) 21:59:10 435.675
Cosmos 2504 30 Aug 21:50:57 21:52:09 10° 289° (WNW) 21:53:20 435.465 / 435.565
AAUSAT CUBESAT 2 30 Aug 21:56:43 22:00:30 35° 263° (W) 22:04:19 437.432
AUBIESAT-1 30 Aug 22:00:52 22:03:11 14° 51° (NE) 22:05:27 437.475
UWE-3 30 Aug 22:03:13 22:07:37 50° 261° (W) 22:11:55 435.000/436.395/437.385
CANX-2 30 Aug 22:07:26 22:08:56 12° 273° (W) 22:10:27 2200.000
M-CUBED/EXP-1 PRIME 30 Aug 22:08:34 22:11:49 19° 54° (NE) 22:15:02 437.505
COMPASS 1 30 Aug 22:09:04 22:12:18 22° 267° (W) 22:15:35 437.405
ZACube-1 30 Aug 22:09:41 22:14:05 64° 259° (W) 22:18:23 437.345
AIST 2 30 Aug 22:10:03 22:13:10 20° 246° (WSW) 22:16:16 435.215
GONETS M04 30 Aug 22:11:51 22:19:18 29° 61° (ENE) 22:26:40
PCSat 30 Aug 22:12:12 22:16:42 27° 250° (WSW) 22:21:10 145.827
CUTE 1.7 + AOD 2 30 Aug 22:12:47 22:14:19 12° 273° (W) 22:15:51 437.475
CUBEBUG 2 30 Aug 22:13:39 22:17:41 29° 265° (W) 22:21:38 437.445
STRAND 1 30 Aug 22:18:36 22:22:57 29° 297° (WNW) 22:27:17 437.568
HUMSAT D 30 Aug 22:25:15 22:29:10 42° 70° (ENE) 22:33:03 437.325/437.525
ESTCUBE 1 30 Aug 22:29:48 22:31:28 12° 56° (NE) 22:33:09 437.505/2401.250
PRISM 30 Aug 22:30:09 22:34:20 68° 102° (ESE) 22:38:30 437.425
Cosmos 2499 30 Aug 22:47:05 22:53:09 29° 65° (ENE) 22:59:13 435.465 / 435.565
UNISAT 6 30 Aug 22:49:11 22:51:25 14° 89° (E) 22:53:36 437.425
O/OREOS (USA 219) 30 Aug 22:54:47 22:58:56 32° 54° (NE) 23:03:03 437.305
CUBEBUG 1 30 Aug 23:01:42 23:04:20 16° 59° (ENE) 23:06:59 437.445
DELFI C3 30 Aug 23:05:26 23:09:03 35° 263° (W) 23:12:43 145.870
VELOX 1 30 Aug 23:09:03 23:11:43 16° 59° (ENE) 23:14:25 145.980
Oscar 11 30 Aug 23:11:56 23:14:42 16° 270° (W) 23:17:27 145.826/435.025
SO-50 30 Aug 23:13:02 23:16:54 24° 114° (ESE) 23:20:43 436.795
DX 1 30 Aug 23:14:56 23:16:53 13° 56° (ENE) 23:18:49 434.975-435.025
ANTELSAT 30 Aug 23:24:49 23:28:37 30° 95° (E) 23:32:24 437.575/2403.000
FUNcube-1 30 Aug 23:25:01 23:27:13 14° 271° (W) 23:29:25 145.935
AUBIESAT-1 30 Aug 23:32:18 23:36:56 79° 69° (ENE) 23:41:31 437.475
M-CUBED/EXP-1 PRIME 30 Aug 23:41:07 23:45:50 74° 252° (WSW) 23:50:30 437.505
UKube-1 30 Aug 23:47:02 23:50:09 20° 61° (ENE) 23:53:17 .
CUSAT 1 30 Aug 23:48:32 23:51:38 41° 93° (E) 23:55:37 437.405
TIGRISAT 30 Aug 23:54:27 23:58:42 58° 101° (E) 00:02:52 435.000
AISAT 30 Aug 23:56:31 00:00:43 42° 69° (ENE) 00:04:58 437.250
JAS-2 30 Aug 23:59:45 00:02:53 13° 84° (E) 00:06:05 435.910
RS-15 31 Aug 00:00:19 00:07:30 19° 95° (E) 00:14:51 29.354- 29.394
HUMSAT D 31 Aug 00:01:54 00:04:59 20° 268° (W) 00:08:03 437.325/437.525
ESTCUBE 1 31 Aug 00:03:02 00:07:32 81° 74° (ENE) 00:12:04 437.505/2401.250
PRISM 31 Aug 00:06:44 00:09:09 15° 301° (WNW) 00:11:33 437.425
GONETS M04 31 Aug 00:08:16 00:17:09 79° 264° (W) 00:25:58
QB50P1 31 Aug 00:13:46 00:16:25 16° 90° (E) 00:19:03 145.935-145.965
POPSAT HIP 1 31 Aug 00:23:48 00:26:55 20° 92° (E) 00:30:01 437.405
UNISAT 6 31 Aug 00:24:21 00:28:37 66° 287° (WNW) 00:32:50 437.425
50 SAT 31 Aug 00:27:51 00:31:26 81° 75° (ENE) 00:35:03 437.505
O/OREOS (USA 219) 31 Aug 00:34:10 00:38:23 36° 253° (WSW) 00:42:34 437.305
CUBEBUG 1 31 Aug 00:35:41 00:40:05 72° 257° (WSW) 00:44:33 437.445
SPROUT 31 Aug 00:36:16 00:40:27 51° 71° (ENE) 00:44:39 437.525
Cosmos 2499 31 Aug 00:39:50 00:46:45 60° 267° (W) 00:53:44 435.465 / 435.565
VELOX 1 31 Aug 00:43:12 00:47:40 73° 258° (WSW) 00:52:09 145.980
TISAT 1 31 Aug 00:43:40 00:46:24 17° 60° (ENE) 00:49:10 437.305
DUCHIFAT 1 31 Aug 00:46:40 00:50:24 30° 96° (E) 00:54:04 145.980
DX 1 31 Aug 00:48:01 00:52:23 90° 94° (E) 00:56:49 434.975-435.025
SO-50 31 Aug 00:52:15 00:57:03 60° 313° (NW) 01:01:49 436.795
QB50P2 31 Aug 00:54:31 00:58:35 43° 99° (E) 01:02:34 145.880/145.840
POLYITAN 1 31 Aug 00:57:01 01:01:04 43° 99° (E) 01:05:04 437.675
ANTELSAT 31 Aug 01:01:35 01:05:19 30° 294° (WNW) 01:09:01 437.575/2403.000
NANOSAT C BR1 31 Aug 01:02:07 01:06:11 46° 99° (E) 01:10:13 145.865
AUBIESAT-1 31 Aug 01:09:18 01:11:51 15° 266° (W) 01:14:23 437.475
DANDE 31 Aug 01:20:36 01:23:14 47° 286° (WNW) 01:26:21 436.750
M-CUBED/EXP-1 PRIME 31 Aug 01:20:42 01:21:02 10° 269° (W) 01:21:21 437.505
UKube-1 31 Aug 01:21:37 01:25:51 52° 259° (W) 01:30:07 .
BUGSAT 1 31 Aug 01:26:34 01:30:22 34° 97° (E) 01:34:05 437.445
ITUPSAT 1 31 Aug 01:31:03 01:33:18 13° 55° (NE) 01:35:34 437.325
CUSAT 1 31 Aug 01:31:55 01:34:12 16° 303° (WNW) 01:36:50 437.405
TIGRISAT 31 Aug 01:32:09 01:34:58 17° 299° (WNW) 01:37:47 435.000
AISAT 31 Aug 01:33:47 01:37:22 23° 267° (W) 01:40:59 437.250
PHONESAT 2.4 31 Aug 01:40:15 01:41:11 11° 161° (SSE) 01:42:08 2401.200-2431.200
JAS-2 31 Aug 01:42:09 01:48:59 64° 101° (ESE) 01:56:32 435.910
ESTCUBE 1 31 Aug 01:43:02 01:44:57 12° 273° (W) 01:46:51 437.505/2401.250
QB50P1 31 Aug 01:48:25 01:52:34 56° 288° (WNW) 01:56:40 145.935-145.965
POPSAT HIP 1 31 Aug 01:58:54 02:02:56 44° 290° (WNW) 02:06:55 437.405
SWISSCUBE 31 Aug 02:00:05 02:03:56 25° 62° (ENE) 02:07:48 437.505
RS-15 31 Aug 02:06:02 02:17:29 70° 119° (ESE) 02:29:34 29.354- 29.394
GONETS M04 31 Aug 02:06:57 02:12:28 19° 286° (WNW) 02:17:59
SPROUT 31 Aug 02:13:42 02:16:42 18° 269° (W) 02:19:42 437.525
BEESAT 31 Aug 02:16:23 02:20:33 31° 65° (ENE) 02:24:45 436.000
TISAT 1 31 Aug 02:17:25 02:21:38 61° 259° (WSW) 02:25:51 437.305
DUCHIFAT 1 31 Aug 02:22:24 02:26:03 29° 294° (WNW) 02:29:41 145.980
DX 1 31 Aug 02:28:14 02:29:15 11° 273° (W) 02:30:15 434.975-435.025
QB50P2 31 Aug 02:30:53 02:34:08 22° 297° (WNW) 02:37:22 145.880/145.840
POLYITAN 1 31 Aug 02:33:24 02:36:37 22° 297° (WNW) 02:39:49 437.675
SO-50 31 Aug 02:35:14 02:38:29 18° 335° (NNW) 02:41:43 436.795
NANOSAT C BR1 31 Aug 02:38:30 02:41:38 21° 297° (WNW) 02:44:45 145.865
Oscar 19 31 Aug 02:48:22 02:53:24 46° 99° (E) 02:58:23 437.125/150
Gurwin Techsat 1B 31 Aug 02:49:53 02:54:10 24° 92° (E) 02:58:27 435.225
BUGSAT 1 31 Aug 03:02:11 03:05:37 25° 295° (WNW) 03:08:59 437.445
KKS-1 31 Aug 03:02:59 03:04:55 13° 56° (NE) 03:06:49 437.445
ITUPSAT 1 31 Aug 03:05:39 03:10:24 84° 74° (ENE) 03:15:12 437.325
PHONESAT 2.4 31 Aug 03:14:40 03:16:52 19° 177° (S) 03:19:04 2401.200-2431.200
JAS-2 31 Aug 03:27:50 03:33:41 32° 299° (WNW) 03:40:04 435.910
STARS 31 Aug 03:28:55 03:30:25 12° 55° (NE) 03:31:55 437.465
MOZHAYETS 4 31 Aug 03:33:51 03:37:43 28° 65° (ENE) 03:41:34
SWISSCUBE 31 Aug 03:36:57 03:41:30 46° 261° (W) 03:46:05 437.505
AO-7 31 Aug 03:43:43 03:48:33 16° 86° (E) 03:53:19 29.400- 29.500
Cosmos 2491 31 Aug 03:48:42 03:54:38 19° 53° (NE) 04:00:32 435.465 / 435.565
BEESAT 31 Aug 03:53:56 03:58:16 35° 263° (W) 04:02:40 436.000
ITAMSAT 1 31 Aug 04:10:55 04:15:44 38° 97° (E) 04:20:32 435.822/435.867
SO-50 31 Aug 04:19:44 04:20:53 11° 359° (N) 04:22:03 436.795
